FW1310 Weather Reports


time (UTC)temp
C
wind
direction
speed
KPH
gust
KPH
rain 1hr
cm
rain 24hr
cm
rain mn
cm
humidity
%
barometer
mb
20260508050004 15 181 0.0 1.6 0.00 0.00 0.00 86 1000.7
20260508045504 15 121 0.0 1.6 0.00 0.00 0.00 86 1001.0
20260508045004 15 133 0.0 0.0 0.00 0.00 0.00 86 1000.9
20260508044004 15 141 0.0 0.0 0.00 0.00 0.00 85 1001.4
20260508043503 15 108 0.0 1.6 0.00 0.00 0.00 85 1001.3
20260508043004 15 107 0.0 0.0 0.00 0.00 0.00 85 1001.2
20260508042503 15 152 0.0 0.0 0.00 0.00 0.00 84 1001.0
20260508042004 15 111 0.0 0.0 0.00 0.00 0.00 84 1001.0
20260508041004 15 223 0.0 0.0 0.00 0.00 0.00 84 1001.1
20260508040503 15 219 0.0 0.0 0.00 0.00 0.00 85 1001.2
20260508040004 15 131 0.0 0.0 0.00 0.00 0.00 85 1001.3
20260508035504 15 156 0.0 0.0 0.00 0.00 0.00 84 1001.1
20260508035004 15 178 0.0 0.0 0.00 0.00 0.00 84 1001.3
20260508034004 15 142 0.0 0.0 0.00 0.00 0.00 84 1001.7
20260508033504 15 112 0.0 0.0 0.00 0.00 0.00 84 1001.9
20260508033004 15 198 0.0 0.0 0.00 0.00 0.00 83 1001.6
20260508032503 15 255 0.0 0.0 0.00 0.00 0.00 83 1001.6
20260508032003 15 259 0.0 0.0 0.00 0.00 0.00 83 1001.3
20260508031503 15 232 0.0 0.0 0.00 0.00 0.00 82 1001.5
20260508031004 15 112 0.0 3.2 0.00 0.00 0.00 82 1001.7
20260508030503 15 68 0.0 0.0 0.00 0.00 0.00 81 1001.6
20260508030004 15 82 0.0 0.0 0.00 0.00 0.00 80 1001.0
20260508025503 16 181 0.0 0.0 0.00 0.00 0.00 80 1000.5
20260508025004 16 180 0.0 0.0 0.00 0.00 0.00 80 1000.5
20260508024504 16 192 0.0 0.0 0.00 0.00 0.00 80 1000.4
20260508024004 16 105 0.0 0.0 0.00 0.00 0.00 79 1000.5
20260508023503 16 161 0.0 0.0 0.00 0.00 0.00 79 1000.5
20260508023004 16 180 0.0 0.0 0.00 0.00 0.00 79 1000.0
20260508022003 16 188 1.6 4.8 0.00 0.00 0.00 78 999.7
20260508021504 16 163 1.6 3.2 0.00 0.00 0.00 78 999.7
20260508021004 16 170 0.0 3.2 0.00 0.00 0.00 78 999.7
20260508020504 16 174 0.0 0.0 0.00 0.00 0.00 78 999.7
20260508020004 16 174 0.0 0.0 0.00 0.00 0.00 77 999.8
20260508015504 16 173 0.0 1.6 0.00 0.00 0.00 77 999.6
20260508014504 16 182 0.0 3.2 0.00 0.00 0.00 76 999.7
20260508014004 16 203 1.6 3.2 0.00 0.00 0.00 75 999.7
20260508013004 16 172 3.2 4.8 0.00 0.00 0.00 74 999.9
20260508012504 16 133 1.6 4.8 0.00 0.00 0.00 74 999.7
20260508012004 16 194 1.6 4.8 0.00 0.00 0.00 74 999.7
20260508011504 16 174 0.0 4.8 0.00 0.00 0.00 74 999.4
20260508011005 17 180 1.6 4.8 0.00 0.00 0.00 73 999.4
20260508010004 17 176 3.2 4.8 0.00 0.00 0.00 73 999.8
20260508005504 17 174 1.6 4.8 0.00 0.00 0.00 72 1000.1
20260508005004 17 188 1.6 3.2 0.00 0.00 0.00 72 1000.3
20260508004504 17 225 0.0 1.6 0.00 0.00 0.00 72 1000.3
20260508004004 17 161 0.0 0.0 0.00 0.00 0.00 71 1000.7
20260508003005 17 168 0.0 4.8 0.00 0.00 0.00 70 1000.4
20260508002504 18 197 3.2 4.8 0.00 0.00 0.00 68 1000.2
20260508002004 18 218 0.0 0.0 0.00 0.00 0.00 68 1000.4
20260508001503 18 187 1.6 4.8 0.00 0.00 0.00 67 1000.7
20260508001004 18 188 1.6 3.2 0.00 0.00 0.00 67 1000.6
20260508000504 18 222 0.0 1.6 0.00 0.00 0.00 67 1000.9
20260508000004 18 170 0.0 0.0 0.00 0.00 0.00 66 1000.9
20260507235504 18 191 1.6 3.2 0.00 0.00 0.00 65 1001.0
20260507235004 18 205 0.0 0.0 0.00 0.00 0.00 65 1001.2
20260507234504 18 77 0.0 4.8 0.00 0.00 0.00 64 1001.5
20260507234004 18 92 0.0 3.2 0.00 0.00 0.00 64 1001.5
20260507233504 18 83 1.6 3.2 0.00 0.00 0.00 63 1001.4
20260507233004 18 147 0.0 0.0 0.00 0.00 0.00 64 1001.3
20260507232504 18 126 0.0 0.0 0.00 0.00 0.00 64 1001.2
20260507232004 18 186 1.6 4.8 0.00 0.00 0.00 63 1000.9
20260507231503 18 163 1.6 9.7 0.00 0.00 0.00 63 1000.5
20260507231004 18 158 3.2 4.8 0.00 0.00 0.00 62 1000.5
20260507230504 18 170 1.6 4.8 0.00 0.00 0.00 63 1000.8
20260507230004 18 182 0.0 1.6 0.00 0.00 0.00 63 1001.0
20260507225504 18 174 1.6 4.8 0.00 0.00 0.00 65 1000.9
20260507225004 18 182 1.6 4.8 0.00 0.00 0.00 63 1000.9
20260507224504 18 189 3.2 9.7 0.00 0.00 0.00 64 1001.2
20260507223504 18 174 0.0 0.0 0.00 0.00 0.00 64 1001.4
20260507223004 18 308 0.0 1.6 0.00 0.00 0.00 65 1001.7
20260507222504 18 184 0.0 1.6 0.00 0.00 0.00 65 1001.4
20260507222004 18 153 0.0 0.0 0.00 0.00 0.00 66 1001.5
20260507221504 18 139 1.6 4.8 0.00 0.00 0.00 65 1001.4
20260507221004 18 188 1.6 3.2 0.00 0.00 0.00 65 1001.7
20260507220503 18 99 0.0 1.6 0.00 0.00 0.00 66 1001.7
20260507220004 18 129 0.0 4.8 0.00 0.00 0.00 66 1001.6
20260507215504 18 39 1.6 4.8 0.00 0.00 0.00 66 1001.9
20260507215003 17 52 3.2 8.0 0.00 0.00 0.00 67 1002.1
20260507214504 18 100 1.6 4.8 0.00 0.00 0.00 67 1002.1
20260507214004 18 140 1.6 8.0 0.00 0.00 0.00 66 1002.1
20260507213504 17 87 4.8 9.7 0.00 0.00 0.00 67 1002.3
20260507212004 18 67 3.2 9.7 0.00 0.00 0.00 67 1002.0
20260507211505 18 102 1.6 8.0 0.00 0.00 0.00 67 1002.1
20260507211004 18 110 1.6 8.0 0.00 0.00 0.00 66 1002.0
20260507210504 18 123 1.6 1.6 0.00 0.00 0.00 66 1001.9
20260507210004 18 35 3.2 4.8 0.00 0.00 0.00 66 1001.8
20260507205504 18 184 1.6 3.2 0.00 0.00 0.00 65 1001.6
20260507205004 18 174 3.2 4.8 0.00 0.00 0.00 65 1001.8
20260507204504 18 142 4.8 8.0 0.00 0.00 0.00 65 1002.0
20260507204004 18 198 1.6 8.0 0.00 0.00 0.00 66 1002.2
20260507203504 18 190 4.8 9.7 0.00 0.00 0.00 66 1002.1
20260507203004 18 196 1.6 9.7 0.00 0.00 0.00 67 1002.4
20260507202504 18 141 1.6 4.8 0.00 0.00 0.00 66 1002.4
20260507202004 18 230 4.8 8.0 0.00 0.00 0.00 67 1002.2
20260507201505 18 155 1.6 3.2 0.00 0.00 0.00 66 1002.9
20260507201004 17 150 0.0 1.6 0.00 0.00 0.00 68 1002.9
20260507200004 17 122 3.2 8.0 0.00 0.00 0.00 68 1002.1
20260507195504 17 107 1.6 4.8 0.00 0.00 0.00 68 1002.4
20260507195004 17 188 1.6 8.0 0.00 0.00 0.00 68 1002.6
20260507194504 17 111 0.0 1.6 0.00 0.00 0.00 68 1002.8
20260507193504 17 78 3.2 4.8 0.00 0.00 0.00 67 1003.3
20260507193004 18 133 1.6 4.8 0.00 0.00 0.00 67 1003.3
20260507192504 17 87 1.6 4.8 0.00 0.00 0.00 68 1003.6
20260507192004 17 46 0.0 1.6 0.00 0.00 0.00 68 1003.4
20260507191504 17 96 0.0 8.0 0.00 0.00 0.00 68 1003.2
20260507191004 18 187 4.8 8.0 0.00 0.00 0.00 68 1003.1
20260507190504 17 167 0.0 4.8 0.00 0.00 0.00 68 1003.2
20260507190005 17 197 4.8 9.7 0.00 0.00 0.00 69 1002.9
20260507185504 17 195 3.2 9.7 0.00 0.00 0.00 70 1002.6
20260507184504 17 148 1.6 4.8 0.00 0.00 0.00 71 1003.1
20260507184004 17 288 4.8 11.3 0.00 0.00 0.00 72 1002.8
20260507183504 16 155 4.8 8.0 0.00 0.00 0.00 71 1002.6
20260507183004 17 61 3.2 12.9 0.00 0.00 0.00 70 1002.7
20260507182504 17 195 4.8 12.9 0.00 0.00 0.00 70 1002.9
20260507181504 17 186 3.2 8.0 0.00 0.00 0.00 70 1003.0
20260507181004 17 184 3.2 9.7 0.00 0.00 0.00 70 1003.2
20260507180503 17 159 4.8 9.7 0.00 0.00 0.00 70 1003.1
20260507180004 17 66 3.2 4.8 0.00 0.00 0.00 70 1003.4
20260507175504 17 164 1.6 9.7 0.00 0.00 0.00 70 1003.7
20260507175004 17 204 6.4 9.7 0.00 0.00 0.00 69 1004.0
20260507174504 17 93 3.2 9.7 0.00 0.00 0.00 71 1003.8
20260507174004 17 127 1.6 8.0 0.00 0.00 0.00 71 1003.4
20260507173504 16 190 3.2 12.9 0.00 0.00 0.00 73 1003.1
20260507173004 16 164 8.0 12.9 0.00 0.00 0.00 74 1002.6
20260507172504 16 190 3.2 11.3 0.00 0.00 0.00 75 1003.2
20260507172004 16 121 1.6 4.8 0.00 0.00 0.00 78 1003.3
20260507171504 15 47 3.2 9.7 0.00 0.00 0.00 79 1003.5
20260507171004 15 69 3.2 9.7 0.00 0.00 0.00 80 1003.8
20260507170504 15 120 3.2 8.0 0.00 0.00 0.00 82 1003.5
20260507170004 15 173 1.6 8.0 0.00 0.00 0.00 83 1003.1
20260507165504 15 170 3.2 9.7 0.00 0.00 0.00 84 1002.8
20260507165004 15 152 3.2 8.0 0.00 0.00 0.00 84 1002.9
20260507164504 15 149 1.6 4.8 0.00 0.00 0.00 84 1003.2
20260507164004 14 355 3.2 8.0 0.00 0.00 0.00 83 1003.9
20260507163504 15 30 3.2 4.8 0.00 0.00 0.00 82 1003.7
20260507163004 15 126 3.2 4.8 0.00 0.00 0.00 82 1004.3
20260507162504 15 133 1.6 4.8 0.00 0.00 0.00 80 1004.8
20260507162004 15 180 3.2 4.8 0.00 0.00 0.00 79 1004.9
20260507161504 15 226 0.0 4.8 0.00 0.00 0.00 80 1005.3
20260507161004 14 77 3.2 9.7 0.00 0.00 0.00 81 1005.1
20260507160503 15 128 4.8 9.7 0.00 0.00 0.00 81 1004.9
20260507155504 15 78 3.2 4.8 0.00 0.00 0.00 82 1004.3
20260507155004 14 103 3.2 4.8 0.00 0.00 0.00 83 1004.4
20260507154504 15 77 1.6 8.0 0.00 0.00 0.00 83 1004.5
20260507153504 14 196 1.6 4.8 0.00 0.00 0.00 82 1004.6
20260507152504 14 211 1.6 4.8 0.00 0.00 0.00 84 1004.2
20260507152004 14 134 1.6 8.0 0.00 0.00 0.00 84 1004.5
20260507151504 14 141 1.6 4.8 0.00 0.00 0.00 84 1004.8
20260507151004 14 119 3.2 8.0 0.00 0.00 0.00 85 1004.4
20260507150504 14 109 3.2 8.0 0.00 0.00 0.00 86 1003.8
20260507150005 14 121 3.2 8.0 0.00 0.00 0.00 86 1004.5
20260507145503 14 350 3.2 9.7 0.00 0.00 0.00 86 1004.8
20260507145004 14 95 3.2 9.7 0.00 0.00 0.00 86 1004.5
20260507144504 13 98 3.2 9.7 0.00 0.00 0.00 87 1003.6
20260507144004 13 131 4.8 8.0 0.00 0.00 0.00 87 1003.8
20260507143504 13 99 4.8 11.3 0.00 0.00 0.00 88 1004.2
20260507143004 13 71 3.2 9.7 0.00 0.00 0.00 88 1004.0
20260507142504 13 105 4.8 12.9 0.00 0.00 0.00 88 1004.0
20260507142004 13 131 3.2 9.7 0.00 0.00 0.00 89 1004.3
20260507141504 13 187 3.2 9.7 0.00 0.00 0.00 90 1004.0
20260507140503 13 139 4.8 8.0 0.00 0.00 0.00 90 1004.1
20260507140004 13 107 1.6 9.7 0.00 0.00 0.00 91 1004.0
20260507135504 13 149 1.6 3.2 0.00 0.00 0.00 91 1003.9
20260507135004 13 80 3.2 8.0 0.00 0.00 0.00 91 1004.0
20260507134504 13 116 3.2 8.0 0.00 0.00 0.00 92 1003.7
20260507134004 13 119 3.2 8.0 0.00 0.00 0.00 92 1003.6
20260507133004 13 72 4.8 9.7 0.00 0.00 0.00 92 1003.3
20260507132004 13 77 1.6 9.7 0.00 0.00 0.00 92 1003.6
20260507131504 13 167 3.2 12.9 0.00 0.00 0.00 92 1003.5
20260507131004 13 103 4.8 12.9 0.00 0.00 0.00 92 1003.4
20260507130504 13 90 3.2 8.0 0.00 0.00 0.00 92 1003.7
20260507125504 12 27 4.8 9.7 0.00 0.00 0.00 92 1003.6
20260507125004 12 251 1.6 4.8 0.00 0.00 0.00 92 1003.7
20260507124503 12 70 3.2 9.7 0.00 0.00 0.00 92 1003.5
20260507123504 12 52 1.6 11.3 0.00 0.00 0.00 92 1003.6
20260507122504 12 172 4.8 11.3 0.00 0.00 0.00 92 1003.3
20260507121504 12 130 6.4 16.1 0.00 0.00 0.00 92 1003.4
20260507121004 12 140 3.2 20.9 0.00 0.00 0.00 92 1003.1
20260507120503 13 72 6.4 20.9 0.00 0.00 0.00 91 1003.1
20260507120004 13 135 3.2 8.0 0.00 0.00 0.00 91 1002.9
20260507115504 13 222 3.2 11.3 0.00 0.00 0.00 91 1002.6
20260507114503 13 53 3.2 9.7 0.00 0.00 0.00 91 1002.7
20260507113504 13 47 8.0 14.5 0.00 0.00 0.00 91 1003.1
20260507113004 13 84 3.2 9.7 0.00 0.00 0.00 91 1003.1
20260507112003 13 109 3.2 8.0 0.00 0.00 0.00 90 1002.9
20260507111504 13 45 4.8 12.9 0.00 0.00 0.00 90 1002.7
20260507111004 13 71 3.2 8.0 0.00 0.00 0.00 90 1002.6
20260507110504 13 114 3.2 4.8 0.00 0.00 0.00 90 1002.7
20260507110004 13 0 1.6 4.8 0.00 0.00 0.00 90 1002.7
20260507105504 13 199 3.2 12.9 0.00 0.00 0.00 90 1002.7
20260507105004 13 63 3.2 8.0 0.00 0.00 0.00 89 1002.7
20260507104504 13 144 4.8 11.3 0.00 0.00 0.00 89 1002.8
20260507104004 13 59 1.6 9.7 0.00 0.00 0.00 89 1003.0
20260507103504 13 63 8.0 19.3 0.00 0.00 0.00 89 1002.8
20260507103004 13 63 3.2 8.0 0.00 0.00 0.00 89 1002.4
20260507102504 13 154 3.2 11.3 0.00 0.00 0.00 89 1002.3
20260507101004 13 167 1.6 8.0 0.00 0.00 0.00 89 1002.6
20260507100504 13 98 4.8 11.3 0.00 0.00 0.00 89 1002.4
20260507100005 13 176 4.8 9.7 0.00 0.00 0.00 89 1002.2
20260507095504 13 35 3.2 4.8 0.00 0.00 0.00 89 1002.3
20260507095004 13 93 1.6 8.0 0.00 0.00 0.00 89 1002.4
20260507094504 13 202 3.2 8.0 0.00 0.00 0.00 88 1002.4
20260507094004 13 87 3.2 8.0 0.00 0.00 0.00 89 1002.5
20260507093504 13 351 1.6 11.3 0.00 0.00 0.00 89 1002.1
20260507093004 13 107 3.2 9.7 0.00 0.00 0.00 88 1002.0
20260507092504 13 178 3.2 9.7 0.00 0.00 0.00 88 1002.0
20260507090504 13 145 0.0 3.2 0.00 0.00 0.00 88 1001.6
20260507090005 13 35 1.6 8.0 0.00 0.00 0.00 88 1001.8
20260507085503 13 183 4.8 8.0 0.00 0.00 0.00 88 1001.7
20260507085004 13 169 1.6 8.0 0.00 0.00 0.00 88 1001.7
20260507084504 13 90 1.6 8.0 0.00 0.00 0.00 88 1001.5
20260507084004 13 109 0.0 8.0 0.00 0.00 0.00 88 1001.6
20260507083504 13 193 3.2 3.2 0.00 0.00 0.00 88 1001.5
20260507083005 13 129 1.6 4.8 0.00 0.00 0.00 88 1001.3
20260507082004 13 179 1.6 8.0 0.00 0.00 0.00 87 1001.4
20260507081504 14 173 4.8 8.0 0.00 0.00 0.00 87 1001.3
20260507080504 14 222 3.2 11.3 0.00 0.00 0.00 87 1001.3
20260507075003 14 179 3.2 4.8 0.00 0.00 0.00 87 1001.1
20260507074504 14 189 1.6 4.8 0.00 0.00 0.00 87 1001.1
20260507074004 14 217 1.6 3.2 0.00 0.00 0.00 87 1001.0
20260507073504 14 171 1.6 9.7 0.00 0.00 0.00 86 1000.6
20260507073004 14 158 4.8 11.3 0.00 0.00 0.00 86 1000.6
20260507072504 14 54 3.2 8.0 0.00 0.00 0.00 86 1000.8
20260507071504 14 184 0.0 3.2 0.00 0.00 0.00 86 1001.0
20260507071004 14 154 3.2 11.3 0.00 0.00 0.00 86 1000.9
20260507070504 14 205 3.2 11.3 0.00 0.00 0.00 86 1001.0
20260507070009 14 191 1.6 8.0 0.00 0.00 0.00 85 1001.0
20260507065504 14 189 1.6 4.8 0.00 0.00 0.00 85 1001.0
20260507065004 14 195 3.2 12.9 0.00 0.00 0.00 85 1000.8
20260507064504 14 175 3.2 12.9 0.00 0.00 0.00 85 1000.6
20260507063004 15 231 1.6 9.7 0.00 0.00 0.00 84 1000.8
20260507062004 15 151 3.2 8.0 0.00 0.00 0.00 84 1000.8
20260507061004 15 178 3.2 4.8 0.00 0.00 0.00 84 1001.0
20260507060504 15 191 3.2 11.3 0.00 0.00 0.00 85 1001.2
20260507060004 15 202 3.2 11.3 0.00 0.00 0.00 85 1001.1
20260507055503 15 167 1.6 3.2 0.00 0.00 0.00 85 1000.7
20260507055004 15 87 0.0 3.2 0.00 0.00 0.00 85 1000.9
20260507054504 15 72 1.6 4.8 0.00 0.00 0.00 85 1001.0
20260507054004 15 208 1.6 4.8 0.00 0.00 0.00 85 1000.8
20260507053504 15 195 1.6 4.8 0.00 0.00 0.00 84 1000.7
20260507053005 15 194 3.2 8.0 0.00 0.00 0.00 84 1000.6
20260507052504 15 178 4.8 8.0 0.00 0.00 0.00 84 1000.8
20260507052004 15 132 1.6 8.0 0.00 0.00 0.00 84 1000.9
20260507051503 15 143 3.2 9.7 0.00 0.00 0.00 83 1000.9
20260507051004 15 162 3.2 9.7 0.00 0.00 0.00 83 1000.8
20260507050504 15 179 4.8 9.7 0.00 0.00 0.00 83 1000.8